Simultaneous Nadir Overpasses (SNOs) Predictions

Prediction of SNOs between FY3D and TERRA Satellite Orbit:

Table of predicted SNOs for the next 14.0 days since TLE Epoch: 3/15/2025
Index Date (FY3D) Time (FY3D) Lat,Lon (FY3D) SZA (FY3D ) Date (TERRA) Time (TERRA) Lat,Lon (TERRA) SZA (TERRA ) Distance(km) Time Diff (sec)
1 03/16/2025 19:54:10 77.22,-118.24 78.56 03/16/2025 19:54:28 77.23,-118.24 78.57 0.91 18
2 03/16/2025 20:44:53 -77.17, 49.34 101.52 03/16/2025 20:43:49 -77.17, 49.21 101.51 3.38 64
3 03/19/2025 06:15:45 -77.27, -93.78 102.36 03/19/2025 06:16:37 -77.27, -93.70 102.37 1.95 52
4 03/19/2025 07:06:29 77.21, 73.79 77.57 03/19/2025 07:05:58 77.19, 73.70 77.55 3.09 31
5 03/21/2025 17:28:03 -77.23, 98.39 103.38 03/21/2025 17:28:06 -77.23, 98.25 103.38 3.56 3
6 03/21/2025 18:18:39 76.83, -92.56 76.21 03/21/2025 18:17:32 76.92, -95.21 76.31 67.57 67
7 03/24/2025 03:49:37 77.26, 122.94 75.69 03/24/2025 03:50:12 77.25, 122.76 75.69 4.33 35
8 03/24/2025 04:40:21 -77.24, -69.68 104.34 03/24/2025 04:39:32 -77.24, -69.62 104.35 1.44 49
9 03/26/2025 14:11:11 -77.29, 147.43 105.23 03/26/2025 14:12:18 -77.29, 147.33 105.24 2.38 67
10 03/26/2025 15:01:56 77.28, -45.18 74.75 03/26/2025 15:01:38 77.26, -45.11 74.73 2.69 18
11 03/29/2025 01:23:29 -77.29, -20.56 106.20 03/29/2025 01:23:43 -77.30, -20.52 106.19 1.74 14



Historial Predications of SNOs between FY3D and TERRA
